TimeCDT,TemperatureF,Dew PointF,Humidity,Sea Level PressureIn,VisibilityMPH,Wind Direction,Wind SpeedMPH,Gust SpeedMPH,PrecipitationIn,Events,Conditions,WindDirDegrees,DateUTC
12:53 AM,35.1,30.0,82,29.85,10.0,ESE,4.6,-,N/A,,Clear,120,2014-03-18 05:53:00
1:53 AM,30.9,28.0,89,29.85,7.0,ESE,3.5,-,N/A,,Clear,120,2014-03-18 06:53:00
2:53 AM,33.1,28.9,85,29.85,8.0,Calm,Calm,-,N/A,,Clear,0,2014-03-18 07:53:00
3:53 AM,32.0,28.9,88,29.84,7.0,Calm,Calm,-,N/A,,Clear,0,2014-03-18 08:53:00
4:53 AM,32.0,28.9,88,29.85,3.0,Calm,Calm,-,N/A,,Clear,0,2014-03-18 09:53:00
5:53 AM,30.0,28.0,92,29.86,3.0,ESE,4.6,-,N/A,,Clear,120,2014-03-18 10:53:00
6:53 AM,32.0,28.9,88,29.84,6.0,SE,5.8,-,N/A,,Clear,130,2014-03-18 11:53:00
7:53 AM,35.1,32.0,89,29.85,5.0,SE,6.9,-,N/A,,Clear,130,2014-03-18 12:53:00
8:53 AM,39.9,35.1,83,29.89,8.0,SE,10.4,-,N/A,,Clear,140,2014-03-18 13:53:00
9:53 AM,45.0,36.0,71,29.91,10.0,South,6.9,-,N/A,,Clear,190,2014-03-18 14:53:00
10:53 AM,48.9,37.9,66,29.92,10.0,South,10.4,-,N/A,,Partly Cloudy,170,2014-03-18 15:53:00
11:25 AM,50.0,37.9,63,29.91,10.0,South,11.5,18.4,N/A,,Mostly Cloudy,180,2014-03-18 16:25:00
11:53 AM,52.0,39.9,63,29.91,10.0,South,12.7,19.6,N/A,,Mostly Cloudy,180,2014-03-18 16:53:00
12:53 PM,53.1,39.9,61,29.89,10.0,SSE,16.1,23.0,N/A,,Mostly Cloudy,160,2014-03-18 17:53:00
1:03 PM,54.0,39.9,59,29.88,10.0,South,8.1,-,N/A,,Scattered Clouds,180,2014-03-18 18:03:00
1:13 PM,53.1,39.9,61,29.87,10.0,SSE,9.2,19.6,N/A,,Mostly Cloudy,150,2014-03-18 18:13:00
1:25 PM,54.0,39.9,59,29.87,10.0,SSE,16.1,19.6,N/A,,Scattered Clouds,160,2014-03-18 18:25:00
1:36 PM,54.0,41.0,62,29.86,10.0,SSE,11.5,19.6,N/A,,Mostly Cloudy,160,2014-03-18 18:36:00
1:53 PM,55.0,41.0,59,29.85,10.0,SSE,9.2,20.7,N/A,,Mostly Cloudy,160,2014-03-18 18:53:00
2:53 PM,55.9,42.1,60,29.81,10.0,SSE,18.4,24.2,N/A,,Mostly Cloudy,150,2014-03-18 19:53:00
3:53 PM,55.9,43.0,62,29.78,10.0,SE,12.7,19.6,N/A,,Mostly Cloudy,140,2014-03-18 20:53:00
4:14 PM,59.0,43.0,55,29.76,10.0,SSE,16.1,23.0,N/A,,Mostly Cloudy,160,2014-03-18 21:14:00
4:53 PM,59.0,43.0,55,29.74,10.0,SSE,15.0,21.9,N/A,,Partly Cloudy,160,2014-03-18 21:53:00
5:53 PM,59.0,42.1,53,29.71,10.0,South,18.4,23.0,N/A,,Clear,170,2014-03-18 22:53:00
6:53 PM,55.0,41.0,59,29.73,10.0,South,10.4,20.7,N/A,,Clear,170,2014-03-18 23:53:00
7:53 PM,53.1,41.0,64,29.74,10.0,South,6.9,-,N/A,,Clear,180,2014-03-19 00:53:00
8:53 PM,53.1,41.0,64,29.79,10.0,Variable,6.9,-,N/A,,Clear,0,2014-03-19 01:53:00
9:53 PM,51.1,42.1,71,29.79,10.0,SSE,9.2,-,N/A,,Clear,160,2014-03-19 02:53:00
10:53 PM,50.0,41.0,71,29.82,10.0,South,8.1,-,N/A,,Clear,170,2014-03-19 03:53:00
11:53 PM,48.0,41.0,77,29.82,10.0,SSE,8.1,-,N/A,,Clear,160,2014-03-19 04:53:00